This is the latest recevied weather packets stored in our database for station/object KC7UNY-13. If no packets are shown the sender has not sent any weather packets the latest 10 day(s).
| Time | Temp. | Humidity | Pressure | Rain* | Wind** | Luminosity | Snow |
|---|---|---|---|---|---|---|---|
| 1777921402 | 25.56° C | 37% | 1012.3 hPa | 0 mm | - | 325 W/m² | - |
| 1777921099 | 26.11° C | 38% | 1012.3 hPa | 0 mm | - | 350 W/m² | - |
| 1777920795 | 26.11° C | 37% | 1012.4 hPa | 0 mm | - | 401 W/m² | - |
| 1777920492 | 26.11° C | 37% | 1012.2 hPa | 0 mm | - | 398 W/m² | - |
| 1777920188 | 26.67° C | 37% | 1012.3 hPa | 0 mm | - | 405 W/m² | - |
| 1777919883 | 26.11° C | 37% | 1012.3 hPa | 0 mm | - | 448 W/m² | - |
| 1777919580 | 26.67° C | 37% | 1012.6 hPa | 0 mm | - | 772 W/m² | - |
| 1777919279 | 26.67° C | 38% | 1012.7 hPa | 0 mm | - | 519 W/m² | - |
| 1777918975 | 26.11° C | 39% | 1012.8 hPa | 0 mm | - | 435 W/m² | - |
| 1777918673 | 26.11° C | 38% | 1012.8 hPa | 0 mm | - | 328 W/m² | - |
| 1777918370 | 26.11° C | 38% | 1012.5 hPa | 0 mm | - | 319 W/m² | - |
| 1777918069 | 25.56° C | 39% | 1012.5 hPa | 0 mm | - | 291 W/m² | - |
| 1777917767 | 25° C | 39% | 1012.7 hPa | 0 mm | - | 295 W/m² | - |
| 1777917465 | 25.56° C | 39% | 1012.4 hPa | 0 mm | - | 269 W/m² | - |
| 1777917161 | 26.11° C | 37% | 1012.5 hPa | 0 mm | - | 250 W/m² | - |
| 1777916859 | 25.56° C | 38% | 1012.6 hPa | 0 mm | - | 262 W/m² | - |
| 1777916557 | 25.56° C | 38% | 1012.6 hPa | 0 mm | - | 284 W/m² | - |
| 1777916253 | 25.56° C | 39% | 1012.6 hPa | 0 mm | - | 302 W/m² | - |
| 1777915950 | 25.56° C | 38% | 1012.5 hPa | 0 mm | - | 337 W/m² | - |
| 1777915647 | 25° C | 38% | 1012.5 hPa | 0 mm | - | 303 W/m² | - |
| 1777915343 | 25° C | 39% | 1012.7 hPa | 0 mm | - | 252 W/m² | - |
| 1777915040 | 25° C | 38% | 1012.9 hPa | 0 mm | - | 324 W/m² | - |
| 1777914737 | 25° C | 38% | 1013 hPa | 0 mm | - | 411 W/m² | - |
| 1777914434 | 25° C | 39% | 1013 hPa | 0 mm | - | 341 W/m² | - |
| 1777914132 | 25° C | 38% | 1013.3 hPa | 0 mm | - | 361 W/m² | - |
* Rain latest hour (hover to see other rain measurements)
** Current wind speed in m/s (hover to see current wind gust speed)